| time (UTC) | temp C | wind direction | speed KPH | gust KPH | rain 1hr cm | rain 24hr cm | rain mn cm | humidity % | barometer mb |
| 20260506123043 | 15 | 241 | 0.0 | 4.8 | 0.00 | 0.00 | 0.00 | 88 | 1009.4 |
| 20260506121542 | 15 | 211 | 1.6 | 8.0 | 0.00 | 0.00 | 0.00 | 88 | 1009.6 |
| 20260506120041 | 14 | 219 | 3.2 | 9.7 | 0.00 | 0.00 | 0.00 | 88 | 1009.7 |
| 20260506114546 | 14 | 235 | 3.2 | 8.0 | 0.00 | 0.05 | 0.00 | 89 | 1009.6 |
| 20260506113039 | 14 | 224 | 3.2 | 6.4 | 0.00 | 0.05 | 0.00 | 89 | 1009.4 |
| 20260506111640 | 13 | 223 | 1.6 | 4.8 | 0.00 | 0.05 | 0.00 | 89 | 1009.6 |
| 20260506110041 | 13 | 231 | 3.2 | 6.4 | 0.00 | 0.05 | 0.00 | 89 | 1009.8 |
| 20260506104557 | 13 | 120 | 3.2 | 11.3 | 0.00 | 0.05 | 0.00 | 89 | 1009.6 |
| 20260506103039 | 13 | 207 | 3.2 | 8.0 | 0.00 | 0.05 | 0.00 | 89 | 1009.5 |
| 20260506101532 | 13 | 222 | 3.2 | 9.7 | 0.00 | 0.05 | 0.00 | 89 | 1009.4 |
| 20260506100051 | 13 | 193 | 3.2 | 8.0 | 0.00 | 0.05 | 0.00 | 90 | 1009.3 |
| 20260506094550 | 13 | 216 | 3.2 | 9.7 | 0.00 | 0.05 | 0.00 | 90 | 1009.3 |
| 20260506093047 | 12 | 201 | 1.6 | 6.4 | 0.00 | 0.05 | 0.00 | 89 | 1009.2 |
| 20260506093013 | 13 | 212 | 1.6 | 8.0 | 0.00 | 0.05 | 0.00 | 89 | 1009.2 |
| 20260506091545 | 13 | 206 | 1.6 | 6.4 | 0.00 | 0.05 | 0.00 | 88 | 1009.3 |
| 20260506090025 | 13 | 203 | 0.0 | 6.4 | 0.00 | 0.05 | 0.00 | 87 | 1009.3 |
| 20260506084521 | 13 | 243 | 3.2 | 11.3 | 0.00 | 0.05 | 0.00 | 87 | 1009.6 |
| 20260506083034 | 13 | 219 | 1.6 | 4.8 | 0.00 | 0.05 | 0.00 | 86 | 1009.7 |
| 20260506081518 | 13 | 218 | 0.0 | 6.4 | 0.00 | 0.05 | 0.00 | 84 | 1009.8 |
| 20260506073006 | 16 | 208 | 0.0 | 6.4 | 0.00 | 0.05 | 0.00 | 76 | 1009.5 |
| 20260506071502 | 17 | 277 | 3.2 | 9.7 | 0.00 | 0.05 | 0.00 | 74 | 1009.8 |
| 20260506070107 | 17 | 243 | 1.6 | 9.7 | 0.00 | 0.05 | 0.00 | 73 | 1009.8 |
| 20260506061534 | 17 | 183 | 4.8 | 9.7 | 0.00 | 0.05 | 0.00 | 70 | 1010.0 |
| 20260506044526 | 17 | 196 | 1.6 | 6.4 | 0.00 | 0.05 | 0.00 | 71 | 1010.5 |
| 20260506043019 | 17 | 257 | 1.6 | 6.4 | 0.00 | 0.05 | 0.00 | 71 | 1010.6 |
| 20260506041517 | 17 | 225 | 1.6 | 6.4 | 0.00 | 0.05 | 0.00 | 71 | 1010.5 |
| 20260506040048 | 17 | 212 | 1.6 | 8.0 | 0.00 | 0.05 | 0.00 | 70 | 1010.5 |
| 20260506034515 | 17 | 216 | 3.2 | 9.7 | 0.00 | 0.05 | 0.05 | 69 | 1010.5 |
| 20260506033014 | 17 | 247 | 1.6 | 6.4 | 0.00 | 0.05 | 0.05 | 69 | 1010.5 |
| 20260506031523 | 17 | 257 | 1.6 | 8.0 | 0.00 | 0.05 | 0.05 | 69 | 1010.5 |
| 20260506030012 | 17 | 251 | 1.6 | 9.7 | 0.00 | 0.05 | 0.05 | 68 | 1010.4 |
| 20260506024542 | 17 | 186 | 4.8 | 8.0 | 0.00 | 0.05 | 0.05 | 68 | 1010.5 |
| 20260506023047 | 17 | 255 | 1.6 | 8.0 | 0.00 | 0.05 | 0.05 | 68 | 1010.5 |
| 20260506021506 | 17 | 216 | 1.6 | 6.4 | 0.00 | 0.05 | 0.05 | 67 | 1010.5 |
| 20260506020009 | 18 | 230 | 0.0 | 4.8 | 0.00 | 0.05 | 0.05 | 63 | 1010.5 |
| 20260506014501 | 19 | 151 | 1.6 | 6.4 | 0.00 | 0.05 | 0.05 | 60 | 1010.2 |
| 20260506013100 | 19 | 239 | 0.0 | 3.2 | 0.00 | 0.05 | 0.05 | 61 | 1010.1 |
| 20260506013030 | 19 | 195 | 0.0 | 3.2 | 0.00 | 0.05 | 0.05 | 61 | 1010.1 |
| 20260506011600 | 19 | 157 | 0.0 | 0.0 | 0.00 | 0.05 | 0.05 | 61 | 1009.9 |
| 20260506004556 | 19 | 133 | 0.0 | 3.2 | 0.00 | 0.05 | 0.05 | 61 | 1009.7 |
| 20260506003103 | 20 | 127 | 0.0 | 3.2 | 0.00 | 0.05 | 0.05 | 60 | 1009.6 |
| 20260506001606 | 20 | 141 | 0.0 | 0.0 | 0.00 | 0.05 | 0.05 | 59 | 1009.4 |
| 20260506000055 | 21 | 138 | 0.0 | 3.2 | 0.00 | 0.05 | 0.05 | 57 | 1009.3 |
| 20260505234609 | 21 | 235 | 0.0 | 4.8 | 0.00 | 0.05 | 0.05 | 53 | 1009.0 |
| 20260505233049 | 23 | 207 | 6.4 | 11.3 | 0.00 | 0.05 | 0.05 | 38 | 1009.0 |
| 20260505231556 | 23 | 243 | 1.6 | 11.3 | 0.00 | 0.05 | 0.05 | 38 | 1008.7 |
| 20260505230047 | 23 | 233 | 3.2 | 0.0 | 0.00 | 0.00 | 0.05 | 39 | 1008.4 |
| 20260505230003 | 23 | 254 | 4.8 | 12.9 | 0.00 | 0.05 | 0.05 | 39 | 1008.4 |
| 20260505224606 | 23 | 116 | 1.6 | 9.7 | 0.00 | 0.05 | 0.05 | 50 | 1008.2 |
| 20260505223102 | 24 | 196 | 1.6 | 12.9 | 0.00 | 0.05 | 0.05 | 45 | 1008.2 |
| 20260505221534 | 25 | 274 | 6.4 | 16.1 | 0.00 | 0.05 | 0.05 | 38 | 1007.8 |
| 20260505220009 | 25 | 225 | 4.8 | 11.3 | 0.00 | 0.05 | 0.05 | 39 | 1007.8 |
| 20260505214507 | 24 | 274 | 4.8 | 16.1 | 0.00 | 0.05 | 0.05 | 43 | 1007.8 |
| 20260505213006 | 24 | 165 | 4.8 | 22.5 | 0.00 | 0.05 | 0.05 | 46 | 1007.9 |
| 20260505211527 | 25 | 253 | 4.8 | 14.5 | 0.00 | 0.05 | 0.05 | 46 | 1007.8 |
| 20260505210109 | 25 | 229 | 4.8 | 12.9 | 0.00 | 0.05 | 0.05 | 45 | 1007.5 |
| 20260505204600 | 25 | 214 | 4.8 | 14.5 | 0.00 | 0.05 | 0.05 | 45 | 1007.7 |
| 20260505204528 | 25 | 195 | 4.8 | 14.5 | 0.00 | 0.05 | 0.05 | 45 | 1007.7 |
| 20260505203014 | 25 | 205 | 4.8 | 16.1 | 0.00 | 0.05 | 0.05 | 44 | 1007.7 |
| 20260505201510 | 25 | 238 | 4.8 | 17.7 | 0.00 | 0.05 | 0.05 | 43 | 1007.7 |
| 20260505200015 | 25 | 219 | 6.4 | 12.9 | 0.00 | 0.05 | 0.05 | 45 | 1008.0 |
| 20260505194510 | 26 | 193 | 4.8 | 17.7 | 0.00 | 0.05 | 0.05 | 42 | 1008.2 |
| 20260505193102 | 26 | 208 | 9.7 | 17.7 | 0.00 | 0.05 | 0.05 | 40 | 1008.4 |
| 20260505193002 | 26 | 232 | 8.0 | 17.7 | 0.00 | 0.05 | 0.05 | 41 | 1008.3 |
| 20260505191558 | 26 | 279 | 8.0 | 12.9 | 0.00 | 0.05 | 0.05 | 39 | 1008.3 |
| 20260505191514 | 26 | 260 | 8.0 | 12.9 | 0.00 | 0.05 | 0.05 | 39 | 1008.5 |
| 20260505190059 | 26 | 278 | 8.0 | 16.1 | 0.00 | 0.05 | 0.05 | 42 | 1008.5 |
| 20260505184553 | 26 | 266 | 9.7 | 19.3 | 0.00 | 0.05 | 0.05 | 41 | 1008.9 |
| 20260505183106 | 26 | 214 | 6.4 | 19.3 | 0.00 | 0.05 | 0.05 | 43 | 1008.9 |
| 20260505181612 | 26 | 245 | 6.4 | 17.7 | 0.00 | 0.05 | 0.05 | 44 | 1008.9 |
| 20260505180056 | 26 | 212 | 6.4 | 17.7 | 0.00 | 0.05 | 0.05 | 45 | 1009.2 |
| 20260505174543 | 25 | 221 | 3.2 | 19.3 | 0.00 | 0.05 | 0.05 | 47 | 1009.1 |
| 20260505173039 | 25 | 131 | 6.4 | 17.7 | 0.00 | 0.05 | 0.05 | 46 | 1009.2 |
| 20260505171540 | 25 | 221 | 3.2 | 14.5 | 0.00 | 0.05 | 0.05 | 47 | 1009.3 |
| 20260505170044 | 25 | 267 | 3.2 | 17.7 | 0.00 | 0.05 | 0.05 | 49 | 1009.5 |
| 20260505164535 | 25 | 235 | 3.2 | 12.9 | 0.00 | 0.05 | 0.05 | 51 | 1009.8 |
| 20260505163011 | 24 | 210 | 3.2 | 9.7 | 0.00 | 0.05 | 0.05 | 51 | 1010.2 |
| 20260505161506 | 23 | 262 | 6.4 | 14.5 | 0.00 | 0.05 | 0.05 | 54 | 1010.5 |
| 20260505153117 | 22 | 210 | 4.8 | 9.7 | 0.00 | 0.05 | 0.05 | 59 | 1010.9 |
| 20260505151652 | 22 | 263 | 1.6 | 12.9 | 0.00 | 0.05 | 0.05 | 58 | 1010.8 |
| 20260505124513 | 14 | 113 | 0.0 | 4.8 | 0.00 | 0.05 | 0.05 | 82 | 1010.9 |